ELEKTRON 3 DEB, 831

Orbit data source: Space-Track

ELEKTRON 3 DEB, 831 is space debris in LEO originally from a launch on Fri, 10 Jul 1964 UTC launched from the Tyuratam Missile And Space Complex (TTMTR). Debris objects in space refer to the collection of defunct objects orbiting the Earth. Examples of debris include non-operational satellites, rocket bodies, and fragments generated from explosions, collisions, or faulty payload assembly.

Loading next visibility...
Identifier
831, 1964-038C
Orbit
LEO
Country
Flag of CISCIS
Related business
Manufacturer
OKB-1
Mission
Spacecraft
Bus & Motor
ADAPTER, Unknown motor
Mass
Unknown
Launch date (UTC)
1964-07-10 (61 years ago)
Launch vehicle
Unknown
Launch site
Tyuratam Missile And Space Complex (TTMTR)
Object type
Payload
Rocket body
Debris
Shape & HBR
Unknown
Radar Cross Section
Medium (>0.1 m² and <1 m²)

Expand to show TLE details & history
Last TLE update: 2 days ago

TLE from 2 days ago
0 ELEKTRON 3 DEB
1 00831U 64038C   25241.64192820  .00012389  00000-0  12319-2 0  9990
2 00831  60.6757 217.1124 1286896 234.0355 113.4493 12.70054571328724
Epoch: 2025-08-29T15:24Z
TLE epoch observation values (Epoch: 2025-08-29T15:24:22.596Z)
Latitude
-0.00004°
Longitude
7.93057°
Altitude
1,880.137 km
Speed
6.723 km/s
True Right ascension
14h 28m 26s
True Declination
0° 00' 00"
Sunlit
Object was in daylight at epoch
Visualization orbit readout
Latitude
Unknown
Longitude
Unknown
Altitude
Unknown
Speed
Unknown
Apparent Right ascension
Unknown
Apparent Declination
Unknown
Sunlit
N/A
Visualization observer readout
Local Sidereal Time
03:00:50
Azimuth
Unknown
Elevation
Unknown
Doppler factor
Unknown
Orbital elements
Apogee altitude
2,379.415 km
Perigee altitude
382.398 km
Semi-major axis
7,759.043 km
Eccentricity
0.12869
Inclination
60.6757°
RAAN
217.1124°
Arg. of periapsis
234.0355°
True anomaly
126.0608°
Mean anomaly
113.4493°
Eccentric anomaly
119.84479°
Mean motion
3.17564 °/min
Orbital period
113.36 mins
BSTAR
0.0012319
Loading maneuver chart data...
Computing Atmospheric mass density...
Loading historical data...
Loading historical data...
Loading historical data...
Loading historical data...
Loading historical data...
Loading historical data...
Loading historical data...

Documentation

Showing up to 5 results
|